Regional Weather Roundup
Issued by NWS New Orleans/Baton Rouge, LA

Home | Current Version | Previous Version | Text Only | Print | Product List | Glossary On
Versions: 1 2 3 4 5 6 7 8 9 10 11 12 13 14 15 16 17 18 19 20 21 22 23 24 25 26 27 28 29 30 31 32 33 34 35 36 37 38 39 40 41 42 43 44 45 46 47 48 49 50
000
ASUS44 KLIX 280313
RWRLIX
NEW ORLEANS REGIONAL WEATHER ROUNDUP
NATIONAL WEATHER SERVICE NEW ORLEANS LA
1000 PM CDT SAT MAY 27 2017

NOTE: "FAIR" INDICATES FEW OR NO CLOUDS BELOW 12,000 FEET WITH NO
      SIGNIFICANT WEATHER AND/OR OBSTRUCTIONS TO VISIBILITY.
      SKY/WX - SKY CONDITION AND SIGNIFICANT WEATHER.
      TMP - AIR TEMPERATURE.     DP    - DEWPOINT TEMPERATURE.
      RH  - RELATIVE HUMIDITY.   PRES  - PRESSURE.
      HI  - HEAT INDEX.          WCI   - WIND CHILL INDEX.

*  THESE STATIONS ARE NOT NWS OR FAA STATIONS AND ARE NOT UNDER
   NWS QUALITY CONTROL.

LAZ038-040-048-061>063-065>067-069-280400-
SOUTHEAST LOUISIANA

CITY           SKY/WX    TMP DP  RH WIND       PRES   REMARKS
N.O. INTL ARPT MOCLDY    80  77  90 S12       29.95F
N.O. LAKEFRONT PTCLDY    80  77  90 S15       29.96S
N.O. DOWNTOWN*   N/A     83  77  82 S10G16      N/A
RESERVE*         N/A     81  76  86 S10       29.95F
SLIDELL        CLOUDY    81  76  84 S13G18    29.95S
BATON ROUGE    MOCLDY    80  74  81 S12       29.94S
BOOTHVILLE     PTCLDY   N/A N/A N/A S12G21    29.99S
BELLE CHASSE   MOCLDY   N/A N/A N/A S12       29.96S
BOGALUSA*        N/A     80  73  77 S8        29.96S
GALLIANO*      PTCLDY    79  74  85 S10       29.97S
NEW ROADS*       N/A     77  73  88 S3        29.94S
GONZALES*      MOCLDY    80  75  85 S8        29.94S
HAMMOND*       PTCLDY    79  72  78 S8        29.95S
HOUMA*         NOT AVBL
PORT FOURCHON* MOCLDY    81  77  89 S10G21    29.97F

$$

MSZ070-080>082-280400-
SOUTHERN MISSISSIPPI

CITY           SKY/WX    TMP DP  RH WIND       PRES   REMARKS
MCCOMB         CLEAR     75  70  84 S5        29.94S
GULFPORT       PTCLDY    80  78  94 S9        29.96S
BILOXI         MOCLDY    80  77  92 SW15      29.96S
PASCAGOULA     CLOUDY    80  75  84 S6        29.98R

$$

COASTAL OBSERVATIONS
LAKE AND NEARSHORE STATIONS

STATION/POSITION TIME  TEMP    WIND        PRES    WAVE
                       AIR SEA DIR/SP/G            HT/PER
                 (UTC) (F)     (DEG/KT/KT) (MB)    (FT/S)
PASCAGOULA       0242   80     220/ 15/ 19 1014.7
WAVELAND YACHT   0242   80 83  200/  8/ 12 1014.4
GRAND ISLE       0242   79 80  170/  7/ 11 1015.1
SOUTHWEST PASS   0242          170/ 12/ 13   N/A
NEW CANAL        0242   81 80  200/  6/ 12 1014.4
SHELL BEACH      0242   80 82  180/ 13/ 17 1014.8

OFFSHORE STATIONS

STATION/POSITION TIME  TEMP    WIND        PRES    WAVE
                       AIR SEA DIR/SP/G            HT/PER
                 (UTC) (F)     (DEG/KT/KT) (MB)    (FT/S)
64 S DAUPHIN ISL 0250   79 80  170/ 12/ 14 1016.3    2/ 4

$$




USA.gov is the U.S. government's official web portal to all federal, state and local government web resources and services.